Location: Ames
(42.0350°N, 93.6200°W)
Time: 21:40:41
(UTC-06:00)

ISS - All Passes

Search period start: 11 February 2016 00:00
Search period end: 21 February 2016 00:00
Orbit: 398 x 408 km, 51.6° (Epoch: 11 February)

Date Brightness Start Highest point End Pass type
(mag) Time Alt. Az. Time Alt. Az. Time Alt. Az.
11 Feb - 15:07:50 10° SSW 15:10:58 45° SE 15:14:05 10° ENE daylight
11 Feb - 16:44:38 10° W 16:47:31 28° NNW 16:50:24 10° NE daylight
11 Feb - 18:22:44 10° NW 18:24:45 15° N 18:26:44 10° NE visible
11 Feb - 19:59:27 10° NW 20:02:04 22° NNE 20:04:40 10° ENE visible
11 Feb - 21:35:34 10° WNW 21:38:49 81° SW 21:42:03 10° SE night (unlit)
12 Feb - 14:15:44 10° S 14:18:23 23° SE 14:21:03 10° E daylight
12 Feb - 15:51:34 10° WSW 15:54:41 43° NNW 15:57:49 10° NE daylight
12 Feb - 17:29:34 10° NW 17:31:45 16° N 17:33:55 10° NNE daylight
12 Feb - 19:06:49 10° NNW 19:09:07 18° NNE 19:11:24 10° ENE visible
12 Feb - 20:42:54 10° NW 20:46:05 55° NNE 20:49:16 10° ESE visible
12 Feb - 22:20:00 10° W 22:22:15 18° SW 22:24:30 10° S night (unlit)
13 Feb - 13:24:23 10° SSE 13:25:52 13° SE 13:27:21 10° ESE daylight
13 Feb - 14:58:38 10° WSW 15:01:54 76° NNW 15:05:09 10° NE daylight
13 Feb - 16:36:17 10° WNW 16:38:45 20° NNW 16:41:13 10° NE daylight
13 Feb - 18:14:02 10° NW 18:16:06 15° N 18:18:09 10° NE visible
13 Feb - 19:50:15 10° NW 19:53:15 33° NNE 19:56:15 10° E visible
13 Feb - 21:26:44 10° WNW 21:29:41 33° SW 21:32:38 10° SSE night (unlit)
14 Feb - 14:05:58 10° SW 14:09:09 56° SE 14:12:21 10° ENE daylight
14 Feb - 15:42:59 10° W 15:45:46 25° NNW 15:48:34 10° NE daylight
14 Feb - 17:21:02 10° NW 17:23:02 15° N 17:25:01 10° NE daylight
14 Feb - 18:57:36 10° NW 19:00:19 24° NNE 19:03:01 10° ENE visible
14 Feb - 20:33:46 10° WNW 20:37:00 66° SW 20:40:12 10° SE visible
15 Feb - 13:13:36 10° SSW 13:16:27 28° SE 13:19:19 10° ENE daylight
15 Feb - 14:49:45 10° W 14:52:49 37° NNW 14:55:54 10° NE daylight
15 Feb - 16:27:49 10° NW 16:29:56 16° N 16:32:02 10° NNE daylight
15 Feb - 18:04:54 10° NW 18:07:17 19° NNE 18:09:40 10° ENE daylight
15 Feb - 19:40:58 10° NW 19:44:12 66° NNE 19:47:25 10° ESE visible
15 Feb - 21:18:24 10° W 21:20:17 15° SW 21:22:09 10° SSW visible
16 Feb - 12:21:50 10° S 12:23:49 15° SE 12:25:48 10° E daylight
16 Feb - 13:56:41 10° WSW 13:59:55 64° NNW 14:03:09 10° NE daylight
16 Feb - 15:34:27 10° WNW 15:36:51 18° NNW 15:39:13 10° NE daylight
16 Feb - 17:12:04 10° NNW 17:14:11 16° N 17:16:18 10° NE daylight
16 Feb - 18:48:13 10° NW 18:51:17 38° NNE 18:54:20 10° E visible
16 Feb - 20:24:49 10° WNW 20:27:38 27° SW 20:30:26 10° SSE visible
17 Feb - 13:03:49 10° SW 13:07:03 68° SE 13:10:18 10° ENE daylight
17 Feb - 14:41:03 10° WNW 14:43:44 23° NNW 14:46:27 10° NE daylight
17 Feb - 16:19:02 10° NW 16:21:02 15° N 16:23:01 10° NE daylight
17 Feb - 17:55:28 10° NW 17:58:17 26° NNE 18:01:04 10° E daylight
17 Feb - 19:31:42 10° WNW 19:34:53 54° SW 19:38:02 10° SE visible
18 Feb - 12:11:15 10° SSW 12:14:15 34° SE 12:17:15 10° ENE daylight
18 Feb - 13:47:41 10° W 13:50:41 33° NNW 13:53:41 10° NE daylight
18 Feb - 15:25:46 10° NW 15:27:50 15° N 15:29:54 10° NE daylight
18 Feb - 17:02:41 10° NW 17:05:10 20° NNE 17:07:39 10° ENE daylight
18 Feb - 18:38:45 10° NW 18:42:01 78° NNE 18:45:14 10° ESE visible
18 Feb - 20:16:39 10° WSW 20:18:00 12° SW 20:19:22 10° SSW visible
19 Feb - 11:19:10 10° S 11:21:30 18° SE 11:23:49 10° E daylight
19 Feb - 12:54:27 10° WSW 12:57:40 54° NNW 13:00:52 10° NE daylight
19 Feb - 14:32:20 10° WNW 14:34:38 18° NNW 14:36:56 10° NNE daylight
19 Feb - 16:09:48 10° NNW 16:11:59 16° N 16:14:10 10° NE daylight
19 Feb - 17:45:54 10° NW 17:49:02 44° NNE 17:52:08 10° ESE daylight
19 Feb - 19:22:40 10° W 19:25:18 23° SW 19:27:55 10° S visible
20 Feb - 12:01:26 10° SW 12:04:41 82° SE 12:07:57 10° ENE daylight
20 Feb - 13:38:49 10° WNW 13:41:26 22° NNW 13:44:03 10° NE daylight
20 Feb - 15:16:44 10° NW 15:18:44 15° N 15:20:45 10° NE daylight
20 Feb - 16:53:03 10° NW 16:55:57 28° NNE 16:58:49 10° E daylight
20 Feb - 18:29:21 10° WNW 18:32:28 44° SW 18:35:34 10° SSE visible
